Location: Kellogg
(38.0159°N, 90.0546°W)
Time: 19:57:29
(UTC+00:00)

Transit 4A - Pass Details

Date: 18 September 2024
Orbit: 865 x 978 km, 66.8° (Epoch: 11 October)

Event Time Altitude Azimuth Distance (km) Brightness Sun altitude
Rises 15:51:40 0° 341° (NNW) 3,601 10.6 43.9°
Reaches altitude 10° 15:54:42 10° 355° (N) 2,673 10.1 44.4°
Maximum altitude 15:59:45 25° 49° (NE) 1,834 9.8 45.0°
Drops below altitude 10° 16:04:51 10° 103° (ESE) 2,710 11.1 45.7°
Sets 16:07:55 0° 116° (ESE) 3,662 11.6 46.1°
